F4142 Weather Reports


time (UTC)temp
F
wind
direction
speed
knots
gust
knots
rain 1hr
in
rain 24hr
in
rain mn
in
humidity
%
barometer
mb
20260508122308 59 157 2.6 6.1 0.00 0.00 0.00 72 1014.8
20260508121810 59 231 2.6 4.3 0.00 0.00 0.00 72 1014.7
20260508120807 0 0.0 0.0 0.00 0.00 0.00 1014.5
20260508120310 58 8 0.9 1.7 0.00 0.00 0.00 74 1014.6
20260508115808 58 8 0.9 3.5 0.00 0.00 0.00 74 1014.6
20260508115306 58 0 0.9 5.2 0.00 0.00 0.00 74 1014.6
20260508114805 58 140 0.9 5.2 0.00 0.00 0.00 73 1014.7
20260508114259 57 130 1.7 3.5 0.00 0.00 0.00 74 1014.6
20260508113801 57 61 1.7 5.2 0.00 0.00 0.00 74 1014.6
20260508113256 57 135 1.7 5.2 0.00 0.00 0.00 74 1014.6
20260508112757 57 42 1.7 6.1 0.00 0.00 0.00 74 1014.7
20260508112255 57 73 3.5 6.1 0.00 0.00 0.00 75 1014.6
20260508111758 57 96 0.9 4.3 0.00 0.00 0.00 76 1014.6
20260508111256 56 56 1.7 5.2 0.00 0.00 0.00 75 1014.5
20260508110756 56 48 1.7 5.2 0.00 0.00 0.00 75 1014.5
20260508110254 56 106 1.7 5.2 0.00 0.00 0.00 75 1014.4
20260508105754 56 68 0.9 4.3 0.00 0.00 0.00 74 1014.4
20260508104753 57 25 1.7 4.3 0.00 0.00 0.00 73 1014.4
20260508104252 57 0 0.9 4.3 0.00 0.00 0.00 73 1014.4
20260508103753 57 278 1.7 4.3 0.00 0.00 0.00 73 1014.4
20260508103254 57 72 0.9 4.3 0.00 0.00 0.00 73 1014.3
20260508101753 57 111 0.9 3.5 0.00 0.00 0.00 73 1014.4
20260508101252 57 23 0.9 3.5 0.00 0.00 0.00 73 1014.3
20260508100752 58 348 1.7 4.3 0.00 0.00 0.00 73 1014.2
20260508100251 58 83 1.7 6.1 0.00 0.00 0.00 73 1014.2
20260508094755 58 162 1.7 5.2 0.00 0.00 0.00 75 1014.3
20260508094252 58 104 1.7 5.2 0.00 0.00 0.00 75 1014.2
20260508093756 58 127 1.7 4.3 0.00 0.00 0.00 76 1014.2
20260508093251 58 44 1.7 4.3 0.00 0.00 0.00 77 1014.0
20260508092754 57 286 1.7 5.2 0.00 0.00 0.00 76 1014.0
20260508092253 57 51 1.7 5.2 0.00 0.00 0.00 76 1013.9
20260508091752 57 114 2.6 5.2 0.00 0.00 0.00 77 1013.9
20260508091252 56 128 1.7 4.3 0.00 0.00 0.00 76 1014.0
20260508090753 56 80 1.7 4.3 0.00 0.00 0.00 76 1013.9
20260508090252 56 0 1.7 2.6 0.00 0.00 0.00 76 1014.0
20260508085755 0 0.0 0.0 0.00 0.00 0.00 1014.0
20260508085254 0 0.0 0.0 0.00 0.00 0.00 1013.9
20260508084756 0 0.0 0.0 0.00 0.00 0.00 1013.9
20260508084254 55 157 0.9 0.9 0.00 0.00 0.00 86 1013.9
20260508083754 55 157 0.9 0.9 0.00 0.00 0.00 86 1013.9
20260508083254 0 344 0.9 0.9 0.00 0.00 0.00 1013.9
20260508082753 0 344 0.9 0.9 0.00 0.00 0.00 1013.9
20260508082253 0 58 2.6 2.6 0.00 0.00 0.00 1013.8
20260508081751 0 58 2.6 2.6 0.00 0.00 0.00 1013.8
20260508081249 0 0.0 0.0 0.00 0.00 0.00 1013.8
20260508080753 0 0.0 0.0 0.00 0.00 0.00 1013.8
20260508080250 0 0.0 0.0 0.00 0.00 0.00 1013.7
20260508075753 52 93 1.7 3.5 0.00 0.00 0.00 86 1013.8
20260508074741 51 58 0.9 2.6 0.00 0.00 0.00 86 1013.7
20260508074240 51 118 1.7 2.6 0.00 0.00 0.00 87 1013.7
20260508073742 51 140 1.7 1.7 0.00 0.00 0.00 87 1013.6
20260508073239 50 123 0.9 2.6 0.00 0.00 0.00 87 1013.5
20260508072737 50 127 1.7 2.6 0.00 0.00 0.00 87 1013.5
20260508072235 50 137 0.9 1.7 0.00 0.00 0.00 87 1013.4
20260508071733 49 68 0.9 0.9 0.00 0.00 0.00 85 1013.4
20260508071234 49 44 0.0 0.9 0.00 0.00 0.00 85 1013.4
20260508070232 0 0.0 0.0 0.00 0.00 0.00 1013.4
20260508065737 0 0.0 0.0 0.00 0.00 0.00 1013.4
20260508064234 0 0.0 0.0 0.00 0.00 0.00 1013.1
20260508063733 0 0.0 0.0 0.00 0.00 0.00 1013.2
20260508063233 0 0.0 0.0 0.00 0.00 0.00 1013.1
20260508062735 47 213 0.0 0.0 0.00 0.00 0.00 85 1013.0
20260508062234 47 213 0.0 0.0 0.00 0.00 0.00 85 1013.0
20260508061733 0 0.0 0.0 0.00 0.00 0.00 1013.0
20260508061234 0 0.0 0.0 0.00 0.00 0.00 1012.9
20260508060731 0 0.0 0.0 0.00 0.00 0.00 1012.9
20260508060233 0 0.0 0.0 0.00 0.00 0.00 1012.8
20260508055731 0 0.0 0.0 0.00 0.00 0.00 1012.7
20260508055231 0 0.0 0.0 0.00 0.00 0.00 1012.7
20260508053734 45 261 0.0 0.0 0.00 0.00 0.00 67 1012.7
20260508052715 0 0.0 0.0 0.00 0.00 0.00 1012.7
20260508052215 0 0.0 0.0 0.00 0.00 0.00 1012.7
20260508051714 0 0.0 0.0 0.00 0.00 0.00 1012.7
20260508051211 0 0.0 0.0 0.00 0.00 0.00 1012.6
20260508050713 0 0.0 0.0 0.00 0.00 0.00 1012.5
20260508050211 0 0.0 0.0 0.00 0.00 0.00 1012.5
20260508045210 0 0.0 0.0 0.00 0.00 0.00 1012.6
20260508044711 0 0.0 0.0 0.00 0.00 0.00 1012.5
20260508044210 0 0.0 0.0 0.00 0.00 0.00 1012.4
20260508043718 0 0.0 0.0 0.00 0.00 0.00 1012.4
20260508042726 0 0.0 0.0 0.00 0.00 0.00 1012.3
20260508042207 0 0.0 0.0 0.00 0.00 0.00 1012.3
20260508041710 0 0.0 0.0 0.00 0.00 0.00 1012.3
20260508041206 0 0.0 0.0 0.00 0.00 0.00 1012.4
20260508040710 0 0.0 0.0 0.00 0.00 0.00 1012.3
20260508040203 0 0.0 0.0 0.00 0.00 0.00 1012.3
20260508035710 0 0.0 0.0 0.00 0.00 0.00 1012.3
20260508035202 0 0.0 0.0 0.00 0.00 0.00 1012.2
20260508034705 0 0.0 0.0 0.00 0.00 0.00 1012.2
20260508033701 0 0.0 0.0 0.00 0.00 0.00 1012.2
20260508033157 0 0.0 0.0 0.00 0.00 0.00 1012.2
20260508032656 0 0.0 0.0 0.00 0.00 0.00 1012.2
20260508032153 0 0.0 0.0 0.00 0.00 0.00 1012.2
20260508031656 0 0.0 0.0 0.00 0.00 0.00 1012.2
20260508031152 0 0.0 0.0 0.00 0.00 0.00 1012.2
20260508030152 0 0.0 0.0 0.00 0.00 0.00 1012.2
20260508025653 0 0.0 0.0 0.00 0.00 0.00 1012.1
20260508025153 0 0.0 0.0 0.00 0.00 0.00 1012.1
20260508024654 0 0.0 0.0 0.00 0.00 0.00 1012.2
20260508024147 0 0.0 0.0 0.00 0.00 0.00 1012.1
20260508023649 0 0.0 0.0 0.00 0.00 0.00 1012.2
20260508023148 0 0.0 0.0 0.00 0.00 0.00 1012.1
20260508022651 0 0.0 0.0 0.00 0.00 0.00 1012.1
20260508022144 0 0.0 0.0 0.00 0.00 0.00 1012.1
20260508021641 0 0.0 0.0 0.00 0.00 0.00 1012.0
20260508021141 0 0.0 0.0 0.00 0.00 0.00 1012.0
20260508020644 0 0.0 0.0 0.00 0.00 0.00 1012.0
20260508020140 0 0.0 0.0 0.00 0.00 0.00 1011.9
20260508015641 0 0.0 0.0 0.00 0.00 0.00 1011.9
20260508015139 0 0.0 0.0 0.00 0.00 0.00 1011.8
20260508014639 0 0.0 0.0 0.00 0.00 0.00 1011.9
20260508014135 0 0.0 0.0 0.00 0.00 0.00 1011.8
20260508013638 0 0.0 0.0 0.00 0.00 0.00 1011.8
20260508013132 0 0.0 0.0 0.00 0.00 0.00 1011.8
20260508012131 0 0.0 0.0 0.00 0.00 0.00 1011.8
20260508011128 0 0.0 0.0 0.00 0.00 0.00 1011.9
20260508010128 0 0.0 0.0 0.00 0.00 0.00 1011.9
20260508005627 0 0.0 0.0 0.00 0.00 0.00 1011.9
20260508005124 0 0.0 0.0 0.00 0.00 0.00 1011.8
20260508004626 0 0.0 0.0 0.00 0.00 0.00 1011.8
20260508004122 0 0.0 0.0 0.00 0.00 0.00 1011.8
20260508003624 0 0.0 0.0 0.00 0.00 0.00 1011.7
20260508003119 0 0.0 0.0 0.00 0.00 0.00 1011.9
20260508002621 0 0.0 0.0 0.00 0.00 0.00 1011.9
20260508002116 0 0.0 0.0 0.00 0.00 0.00 1011.9
20260508001624 0 0.0 0.0 0.00 0.00 0.00 1012.0
20260508001114 0 0.0 0.0 0.00 0.00 0.00 1012.0
20260508000619 0 0.0 0.0 0.00 0.00 0.00 1012.0
20260508000111 0 0.0 0.0 0.00 0.00 0.00 1012.0
20260507235609 0 0.0 0.0 0.00 0.00 0.00 1012.0
20260507235108 0 0.0 0.0 0.00 0.00 0.00 1012.0
20260507234605 0 0.0 0.0 0.00 0.00 0.00 1012.0
20260507234103 0 0.0 0.0 0.00 0.00 0.00 1011.9
20260507233605 0 0.0 0.0 0.00 0.00 0.00 1012.0
20260507233102 0 0.0 0.0 0.00 0.00 0.00 1011.9
20260507232602 0 0.0 0.0 0.00 0.00 0.00 1011.9
20260507232059 0 0.0 0.0 0.00 0.00 0.00 1011.8
20260507231601 0 0.0 0.0 0.00 0.00 0.00 1011.8
20260507231056 0 0.0 0.0 0.00 0.00 0.00 1011.8
20260507230054 0 0.0 0.0 0.00 0.00 0.00 1011.7
20260507225554 0 0.0 0.0 0.00 0.00 0.00 1011.6
20260507225052 0 0.0 0.0 0.00 0.00 0.00 1011.5
20260507224049 0 0.0 0.0 0.00 0.00 0.00 1011.5
20260507223552 0 0.0 0.0 0.00 0.00 0.00 1011.6
20260507223051 0 216 0.0 0.0 0.00 0.00 0.00 1011.5
20260507222549 0 216 0.0 0.0 0.00 0.00 0.00 1011.5
20260507222047 0 0.0 0.0 0.00 0.00 0.00 1011.5
20260507221547 0 0.0 0.0 0.00 0.00 0.00 1011.5
20260507221044 0 0.0 0.0 0.00 0.00 0.00 1011.4
20260507220546 0 0.0 0.0 0.00 0.00 0.00 1011.3
20260507215539 0 0.0 0.0 0.00 0.00 0.00 1011.3
20260507215039 0 0.0 0.0 0.00 0.00 0.00 1011.3
20260507214539 0 0.0 0.0 0.00 0.00 0.00 1011.3
20260507214037 0 0.0 0.0 0.00 0.00 0.00 1011.2
20260507213540 0 0.0 0.0 0.00 0.00 0.00 1011.2
20260507213036 0 0.0 0.0 0.00 0.00 0.00 1011.2
20260507212535 0 0.0 0.0 0.00 0.00 0.00 1011.1
20260507212036 0 0.0 0.0 0.00 0.00 0.00 1011.1
20260507211032 0 0.0 0.0 0.00 0.00 0.00 1011.1
20260507210033 0 250 1.7 1.7 0.00 0.00 0.00 1010.9
20260507205530 0 214 1.7 1.7 0.00 0.00 0.00 1011.0
20260507205027 0 214 1.7 1.7 0.00 0.00 0.00 1010.9
20260507204027 0 0.0 0.0 0.00 0.00 0.00 1010.8
20260507203527 0 0.0 0.0 0.00 0.00 0.00 1010.8
20260507203025 0 0.0 0.0 0.00 0.00 0.00 1010.7
20260507202524 0 0.0 0.0 0.00 0.00 0.00 1010.7
20260507202022 0 0.0 0.0 0.00 0.00 0.00 1010.6
20260507201523 0 0.0 0.0 0.00 0.00 0.00 1010.6
20260507201021 0 0.0 0.0 0.00 0.00 0.00 1010.5
20260507200522 0 0.0 0.0 0.00 0.00 0.00 1010.5
20260507200020 0 0.0 0.0 0.00 0.00 0.00 1010.5
20260507195512 0 0.0 0.0 0.00 0.00 0.00 1010.4
20260507195012 0 0.0 0.0 0.00 0.00 0.00 1010.4
20260507194511 0 207 6.1 6.1 0.00 0.00 0.00 1010.3
20260507194007 0 207 6.1 6.1 0.00 0.00 0.00 1010.3
20260507193507 0 0.0 0.0 0.00 0.00 0.00 1010.3
20260507192507 56 217 3.5 4.3 0.00 0.00 0.00 61 1010.2
20260507191510 0 0.0 0.0 0.00 0.00 0.00 1010.1
20260507191008 57 185 7.0 9.6 0.00 0.00 0.00 61 1010.1
20260507190508 57 185 7.0 9.6 0.00 0.00 0.00 61 1010.0
20260507190007 0 0.0 0.0 0.00 0.00 0.00 1009.9
20260507185508 0 0.0 0.0 0.00 0.00 0.00 1009.9
20260507185007 0 0.0 0.0 0.00 0.00 0.00 1009.8
20260507184504 0 0.0 0.0 0.00 0.00 0.00 1009.8
20260507184002 0 0.0 0.0 0.00 0.00 0.00 1009.9
20260507183509 0 0.0 0.0 0.00 0.00 0.00 1009.8
20260507183002 0 0.0 0.0 0.00 0.00 0.00 1009.7
20260507182506 0 0.0 0.0 0.00 0.00 0.00 1009.7
20260507182002 0 0.0 0.0 0.00 0.00 0.00 1009.7
20260507181505 0 0.0 0.0 0.00 0.00 0.00 1009.7
20260507181003 58 179 3.5 5.2 0.00 0.00 0.00 61 1009.7
20260507180005 58 265 2.6 3.5 0.00 0.00 0.00 61 1009.7
20260507175005 0 113 1.7 0.0 0.00 0.00 0.00 1009.6
20260507174508 59 113 1.7 4.3 0.00 0.00 0.00 62 1009.6
20260507173947 59 183 1.7 4.3 0.00 0.00 0.00 62 1009.6
20260507173450 59 180 1.7 2.6 0.00 0.00 0.00 62 1009.5
20260507172446 0 0.0 0.0 0.00 0.00 0.00 1009.6
20260507171944 0 0.0 0.0 0.00 0.00 0.00 1009.6
20260507171442 0 0.0 0.0 0.00 0.00 0.00 1009.5
20260507170939 0 0.0 0.0 0.00 0.00 0.00 1009.6
20260507170443 59 220 2.6 0.9 0.00 0.00 0.00 69 1009.6
20260507165940 59 220 2.6 5.2 0.00 0.00 0.00 69 1009.6
20260507164938 0 0.0 0.0 0.00 0.00 0.00 1009.6
20260507164440 0 0.0 0.0 0.00 0.00 0.00 1009.6
20260507163939 0 0.0 0.0 0.00 0.00 0.00 1009.6
20260507163441 0 0.0 0.0 0.00 0.00 0.00 1009.7
20260507162937 0 0.0 0.0 0.00 0.00 0.00 1009.6
20260507162442 0 166 4.3 4.3 0.00 0.00 0.00 1009.7
20260507161440 60 233 6.1 13.0 0.00 0.00 0.00 61 1009.5
20260507160934 60 130 4.3 9.6 0.00 0.00 0.00 60 1009.5
20260507160438 61 202 2.6 7.8 0.00 0.00 0.00 58 1009.5
20260507155934 61 223 3.5 8.7 0.00 0.00 0.00 58 1009.4
20260507154944 61 161 3.5 7.8 0.00 0.00 0.00 56 1009.5
20260507154436 61 241 2.6 8.7 0.00 0.00 0.00 57 1009.5
20260507153933 61 292 0.9 8.7 0.00 0.00 0.00 57 1009.6
20260507153434 61 193 4.3 8.7 0.00 0.00 0.00 56 1009.6
20260507152933 61 157 3.5 10.4 0.00 0.00 0.00 55 1009.5
20260507152436 61 240 4.3 10.4 0.00 0.00 0.00 56 1009.6
20260507151938 61 173 1.7 10.4 0.00 0.00 0.00 55 1009.5
20260507151436 61 197 4.3 10.4 0.00 0.00 0.00 53 1009.6
20260507150937 62 166 4.3 7.8 0.00 0.00 0.00 55 1009.5
20260507150437 62 182 2.6 6.1 0.00 0.00 0.00 54 1009.6
20260507145430 62 158 1.7 6.1 0.00 0.00 0.00 57 1009.6
20260507144930 62 196 3.5 10.4 0.00 0.00 0.00 56 1009.7
20260507144428 62 159 5.2 12.2 0.00 0.00 0.00 55 1009.8
20260507143927 62 176 7.8 13.9 0.00 0.00 0.00 56 1009.7
20260507142929 61 193 5.2 10.4 0.00 0.00 0.00 57 1009.7
20260507142432 61 180 6.1 11.3 0.00 0.00 0.00 56 1009.8
20260507141930 61 162 5.2 11.3 0.00 0.00 0.00 57 1009.9
20260507141431 61 157 4.3 11.3 0.00 0.00 0.00 56 1009.9
20260507140928 61 231 3.5 11.3 0.00 0.00 0.00 56 1010.0
20260507140431 62 306 1.7 8.7 0.00 0.00 0.00 57 1009.9
20260507135430 62 238 1.7 3.5 0.00 0.00 0.00 58 1010.0
20260507134926 62 188 0.9 6.1 0.00 0.00 0.00 60 1010.0
20260507134426 62 172 1.7 8.7 0.00 0.00 0.00 57 1010.1
20260507133926 63 185 5.2 8.7 0.00 0.00 0.00 54 1010.2
20260507133425 63 130 3.5 9.6 0.00 0.00 0.00 53 1010.1
20260507132924 63 173 2.6 9.6 0.00 0.00 0.00 52 1010.0
20260507132425 63 213 3.5 10.4 0.00 0.00 0.00 52 1010.0
20260507131924 63 183 2.6 10.4 0.00 0.00 0.00 51 1009.9
20260507130927 63 235 1.7 8.7 0.00 0.00 0.00 53 1010.0
20260507130428 62 154 2.6 9.6 0.00 0.00 0.00 51 1010.0
20260507125926 62 282 1.7 9.6 0.00 0.00 0.00 53 1010.0
20260507124927 61 228 3.5 7.8 0.00 0.00 0.00 53 1010.1
20260507124428 61 183 2.6 7.8 0.00 0.00 0.00 55 1010.1
20260507122925 60 195 1.7 5.2 0.00 0.00 0.00 54 1010.3